TimeEST,TemperatureF,Dew PointF,Humidity,Sea Level PressureIn,VisibilityMPH,Wind Direction,Wind SpeedMPH,Gust SpeedMPH,PrecipitationIn,Events,Conditions,WindDirDegrees,DateUTC
12:53 AM,39.9,37.9,93,30.07,9.0,Calm,Calm,-,N/A,,Clear,0,2013-02-15 05:53:00
1:53 AM,39.9,37.9,93,30.07,5.0,Calm,Calm,-,N/A,,Clear,0,2013-02-15 06:53:00
2:53 AM,37.9,36.0,93,30.08,3.0,Calm,Calm,-,N/A,,Clear,0,2013-02-15 07:53:00
3:00 AM,37.4,35.6,93,30.07,2.5,Calm,Calm,-,N/A,,Clear,0,2013-02-15 08:00:00
3:11 AM,37.4,35.6,93,30.07,4.0,Calm,Calm,-,N/A,,Clear,0,2013-02-15 08:11:00
3:14 AM,37.4,35.6,93,30.07,1.2,Calm,Calm,-,N/A,,Clear,0,2013-02-15 08:14:00
3:22 AM,37.4,35.6,93,30.07,0.5,Calm,Calm,-,N/A,Fog,Fog,0,2013-02-15 08:22:00
3:28 AM,35.6,35.6,100,30.06,1.8,Calm,Calm,-,N/A,,Clear,0,2013-02-15 08:28:00
3:32 AM,35.6,35.6,100,30.06,3.0,Calm,Calm,-,N/A,,Clear,0,2013-02-15 08:32:00
3:53 AM,37.0,35.1,93,30.06,3.0,Calm,Calm,-,N/A,,Clear,0,2013-02-15 08:53:00
4:06 AM,35.6,33.8,93,30.07,2.5,Calm,Calm,-,N/A,,Clear,0,2013-02-15 09:06:00
4:16 AM,35.6,35.6,100,30.07,3.0,Calm,Calm,-,N/A,,Clear,0,2013-02-15 09:16:00
4:53 AM,35.1,34.0,96,30.08,5.0,Calm,Calm,-,N/A,,Clear,0,2013-02-15 09:53:00
5:45 AM,35.6,33.8,93,30.09,5.0,Calm,Calm,-,N/A,,Partly Cloudy,0,2013-02-15 10:45:00
5:53 AM,35.1,32.0,89,30.09,6.0,Calm,Calm,-,N/A,,Clear,0,2013-02-15 10:53:00
6:53 AM,35.1,34.0,96,30.09,4.0,Calm,Calm,-,N/A,,Clear,0,2013-02-15 11:53:00
7:11 AM,33.8,33.8,100,30.10,2.0,Calm,Calm,-,N/A,,Scattered Clouds,0,2013-02-15 12:11:00
7:13 AM,33.8,33.8,100,30.10,0.8,Calm,Calm,-,N/A,,Mist,0,2013-02-15 12:13:00
7:53 AM,36.0,35.1,97,30.12,1.0,Calm,Calm,-,N/A,,Mist,0,2013-02-15 12:53:00
7:57 AM,37.4,35.6,93,30.11,2.0,Calm,Calm,-,N/A,,Mostly Cloudy,0,2013-02-15 12:57:00
8:01 AM,37.4,35.6,93,30.11,3.0,Calm,Calm,-,N/A,,Scattered Clouds,0,2013-02-15 13:01:00
8:53 AM,43.0,41.0,93,30.12,7.0,Calm,Calm,-,N/A,,Clear,0,2013-02-15 13:53:00
9:53 AM,51.1,42.1,71,30.11,10.0,Calm,Calm,-,N/A,,Clear,0,2013-02-15 14:53:00
10:53 AM,55.0,39.9,57,30.10,10.0,Calm,Calm,-,N/A,,Clear,0,2013-02-15 15:53:00
11:53 AM,57.9,37.0,46,30.09,10.0,Calm,Calm,-,N/A,,Clear,0,2013-02-15 16:53:00
12:53 PM,61.0,35.1,38,30.06,10.0,Calm,Calm,-,N/A,,Clear,0,2013-02-15 17:53:00
1:53 PM,61.0,35.1,38,30.03,10.0,Calm,Calm,-,N/A,,Clear,0,2013-02-15 18:53:00
2:53 PM,62.1,34.0,35,30.00,10.0,SW,6.9,-,N/A,,Clear,220,2013-02-15 19:53:00
3:53 PM,63.0,32.0,31,29.98,10.0,Variable,5.8,-,N/A,,Clear,0,2013-02-15 20:53:00
4:53 PM,63.0,32.0,31,29.97,10.0,WSW,5.8,-,N/A,,Clear,250,2013-02-15 21:53:00
5:53 PM,60.1,33.1,36,29.98,10.0,WSW,3.5,-,N/A,,Clear,250,2013-02-15 22:53:00
6:53 PM,52.0,37.0,57,29.98,10.0,Calm,Calm,-,N/A,,Clear,0,2013-02-15 23:53:00
7:53 PM,50.0,37.9,63,29.99,10.0,SW,3.5,-,N/A,,Clear,220,2013-02-16 00:53:00
8:53 PM,46.0,39.0,76,29.98,10.0,Calm,Calm,-,N/A,,Clear,0,2013-02-16 01:53:00
9:53 PM,42.1,37.9,85,29.98,10.0,Calm,Calm,-,N/A,,Clear,0,2013-02-16 02:53:00
10:53 PM,43.0,39.0,86,29.98,10.0,SSE,3.5,-,N/A,,Clear,150,2013-02-16 03:53:00
11:53 PM,44.1,37.9,79,29.96,10.0,South,3.5,-,N/A,,Clear,180,2013-02-16 04:53:00